{"data":{"norad_id":54861,"intl_designator":"2022-177AT","name":"STARLINK-5400","alt_names":[],"object_type":"PAYLOAD","status":"ACTIVE","operator":null,"country":"US","launch_date":"2022-12-28","launch_site_code":"AFETR","launch_vehicle":null,"mission":null,"orbit_class":"UNKNOWN","rcs_meters":null,"size_class":null,"mass_kg":null,"dimensions":null,"purposes":["comms"],"wikipedia_slug":null,"has_3d_model":false,"image_url":null,"decayed_at":null,"tle_current":{"epoch":"2026-09-19T22:45:51.963840Z","epoch_age_seconds":140388,"freshness":"FRESH","line1":"1 54861U 22177AT  26262.94851810 -.00000211  00000+0  18524-5 0  9996","line2":"2 54861  43.0038 104.2031 0001230 276.7891  83.2821 15.27576478206803","mean_motion":15.27576478,"eccentricity":0.000123,"inclination_deg":43.0038,"raan_deg":104.2031,"arg_perigee_deg":276.7891,"mean_anomaly_deg":83.2821,"bstar":1.8524e-6,"rev_number":20680,"period_min":94.266966056281,"perigee_km":482.21571500796,"apogee_km":483.90356938194,"semimajor_km":6861.1966421949,"source":"CELESTRAK","updated_at":"2026-09-21T09:00:33.160042Z"}}}